VOZ1528 YSSY-YMHB

Flight info

Callsign VOZ1528
Flight time 1h 43m
Altitude 36000
Route TESAT H65 WOL H20 MOTRA W407 TASUM
Aircraft B738/M-SDE2E3FGHIRWXY/LB1

Departure

Time 2026-05-08 03:31
Airport Sydney Kingsford Smith International Airport (YSSY)

Arrival

Time 2026-05-08 05:14
Airport Hobart International Airport (YMHB)
Time Latitude Longitude Altitude Speed Heading
2026-05-08 02:44 -33.93701 151.17871 29 ft 0 kts 78°
2026-05-08 03:16 -33.93704 151.17850 29 ft 4 kts 79°
2026-05-08 03:17 -33.93707 151.17819 29 ft 4 kts 97°
2026-05-08 03:17 -33.93701 151.17798 29 ft 4 kts 173°
2026-05-08 03:17 -33.93697 151.17798 29 ft 1 kts 194°
2026-05-08 03:21 -33.93704 151.17796 29 ft 4 kts 193°
2026-05-08 03:21 -33.93741 151.17789 29 ft 6 kts 175°
2026-05-08 03:22 -33.93779 151.17829 29 ft 11 kts 124°
2026-05-08 03:22 -33.93800 151.17939 29 ft 16 kts 77°
2026-05-08 03:22 -33.93769 151.18071 29 ft 16 kts 74°
2026-05-08 03:22 -33.93739 151.18200 29 ft 16 kts 75°
2026-05-08 03:23 -33.93710 151.18324 29 ft 15 kts 73°
2026-05-08 03:23 -33.93682 151.18443 29 ft 15 kts 74°
2026-05-08 03:23 -33.93652 151.18569 29 ft 17 kts 74°
2026-05-08 03:23 -33.93619 151.18708 29 ft 17 kts 74°
2026-05-08 03:24 -33.93595 151.18813 29 ft 11 kts 76°
2026-05-08 03:24 -33.93605 151.18897 29 ft 10 kts 121°
2026-05-08 03:24 -33.93631 151.18929 28 ft 7 kts 146°
2026-05-08 03:24 -33.93650 151.18939 27 ft 0 kts 159°
2026-05-08 03:29 -33.93660 151.18944 27 ft 7 kts 160°
2026-05-08 03:29 -33.93736 151.18948 25 ft 13 kts 202°
2026-05-08 03:29 -33.93773 151.18896 25 ft 3 kts 248°
2026-05-08 03:29 -33.93779 151.18876 25 ft 2 kts 253°
2026-05-08 03:30 -33.93790 151.18833 25 ft 27 kts 253°
2026-05-08 03:30 -33.94157 151.17287 86 ft 152 kts 256°
2026-05-08 03:31 -33.94777 151.14527 1194 ft 189 kts 254°
2026-05-08 03:31 -33.95458 151.11330 2499 ft 204 kts 254°
2026-05-08 03:32 -33.95819 151.09622 3036 ft 215 kts 252°
2026-05-08 03:32 -33.96188 151.07849 3640 ft 227 kts 252°
2026-05-08 03:32 -33.96573 151.05932 4255 ft 241 kts 252°
2026-05-08 03:32 -33.96957 151.03943 4814 ft 246 kts 252°
2026-05-08 03:33 -33.97567 151.02048 5032 ft 242 kts 227°
2026-05-08 03:33 -33.98948 151.00970 5281 ft 241 kts 199°
2026-05-08 03:33 -34.00526 151.00376 5502 ft 238 kts 198°
2026-05-08 03:33 -34.02125 150.99779 5707 ft 243 kts 198°
2026-05-08 03:34 -34.03736 150.99177 5941 ft 240 kts 198°
2026-05-08 03:34 -34.05347 150.98576 6147 ft 245 kts 198°
2026-05-08 03:34 -34.06952 150.97972 6334 ft 242 kts 199°
2026-05-08 03:34 -34.08579 150.97355 6549 ft 245 kts 198°
2026-05-08 03:35 -34.10204 150.96736 6749 ft 247 kts 198°
2026-05-08 03:35 -34.11832 150.96113 6936 ft 246 kts 198°
2026-05-08 03:35 -34.13480 150.95482 7148 ft 250 kts 198°
2026-05-08 03:35 -34.15145 150.94841 7350 ft 252 kts 199°
2026-05-08 03:36 -34.16789 150.94210 7537 ft 247 kts 199°
2026-05-08 03:36 -34.18845 150.93420 7800 ft 252 kts 199°
2026-05-08 03:36 -34.20523 150.92773 8006 ft 254 kts 199°
2026-05-08 03:36 -34.22205 150.92125 8208 ft 254 kts 199°
2026-05-08 03:37 -34.23886 150.91476 8423 ft 254 kts 199°
2026-05-08 03:37 -34.24999 150.91046 8542 ft 253 kts 199°
2026-05-08 03:37 -34.26685 150.90395 8759 ft 256 kts 199°
2026-05-08 03:37 -34.28933 150.89526 9157 ft 252 kts 199°
2026-05-08 03:38 -34.30071 150.89086 9549 ft 257 kts 200°
2026-05-08 03:38 -34.32371 150.88195 10219 ft 265 kts 200°
2026-05-08 03:38 -34.34126 150.87516 10682 ft 267 kts 200°
2026-05-08 03:38 -34.35346 150.87042 10955 ft 276 kts 200°
2026-05-08 03:39 -34.37187 150.86329 11740 ft 278 kts 200°
2026-05-08 03:39 -34.39036 150.85613 12607 ft 279 kts 201°
2026-05-08 03:39 -34.40887 150.84896 13383 ft 282 kts 201°
2026-05-08 03:39 -34.42765 150.84167 14121 ft 284 kts 201°
2026-05-08 03:40 -34.44652 150.83435 14827 ft 285 kts 201°
2026-05-08 03:40 -34.46542 150.82701 15538 ft 286 kts 201°
2026-05-08 03:40 -34.48445 150.81961 16185 ft 288 kts 201°
2026-05-08 03:40 -34.50359 150.81217 16823 ft 290 kts 201°
2026-05-08 03:41 -34.52288 150.80467 17457 ft 292 kts 201°
2026-05-08 03:41 -34.54201 150.79723 18077 ft 294 kts 201°
2026-05-08 03:41 -34.56122 150.78884 18638 ft 294 kts 207°
2026-05-08 03:41 -34.57947 150.77752 19132 ft 295 kts 210°
2026-05-08 03:42 -34.59756 150.76551 19629 ft 297 kts 211°
2026-05-08 03:42 -34.61598 150.75315 20129 ft 300 kts 211°
2026-05-08 03:42 -34.63405 150.74103 20630 ft 302 kts 211°
2026-05-08 03:42 -34.65273 150.72856 21136 ft 303 kts 211°
2026-05-08 03:43 -34.67106 150.71634 21513 ft 306 kts 210°
2026-05-08 03:43 -34.68979 150.70388 21958 ft 308 kts 210°
2026-05-08 03:43 -34.70870 150.69131 22401 ft 311 kts 210°
2026-05-08 03:43 -34.72772 150.67868 22832 ft 312 kts 211°
2026-05-08 03:44 -34.74687 150.66596 23233 ft 315 kts 210°
2026-05-08 03:44 -34.76619 150.65312 23631 ft 318 kts 210°
2026-05-08 03:44 -34.78562 150.64021 24025 ft 318 kts 210°
2026-05-08 03:44 -34.80503 150.62730 24400 ft 319 kts 210°
2026-05-08 03:45 -34.82456 150.61431 24763 ft 320 kts 210°
2026-05-08 03:45 -34.84413 150.60128 25105 ft 321 kts 210°
2026-05-08 03:45 -34.86376 150.58820 25441 ft 323 kts 210°
2026-05-08 03:45 -34.88351 150.57505 25765 ft 324 kts 210°
2026-05-08 03:46 -34.90332 150.56184 26071 ft 325 kts 210°
2026-05-08 03:46 -34.92322 150.54857 26366 ft 327 kts 210°
2026-05-08 03:46 -34.94338 150.53561 26644 ft 330 kts 207°
2026-05-08 03:46 -34.96490 150.52555 26936 ft 334 kts 199°
2026-05-08 03:47 -34.98744 150.51846 27224 ft 336 kts 198°
2026-05-08 03:47 -35.01021 150.51176 27483 ft 338 kts 197°
2026-05-08 03:47 -35.03316 150.50510 27747 ft 339 kts 197°
2026-05-08 03:47 -35.05615 150.49843 28025 ft 341 kts 198°
2026-05-08 03:48 -35.07927 150.49167 28266 ft 342 kts 198°
2026-05-08 03:48 -35.10250 150.48485 28518 ft 344 kts 198°
2026-05-08 03:48 -35.12579 150.47796 28770 ft 345 kts 198°
2026-05-08 03:48 -35.14915 150.47104 29022 ft 346 kts 198°
2026-05-08 03:49 -35.17258 150.46408 29250 ft 348 kts 198°
2026-05-08 03:49 -35.19614 150.45706 29463 ft 349 kts 198°
2026-05-08 03:49 -35.21982 150.45000 29676 ft 351 kts 198°
2026-05-08 03:49 -35.24356 150.44291 29891 ft 352 kts 198°
2026-05-08 03:50 -35.26745 150.43577 30096 ft 354 kts 198°
2026-05-08 03:50 -35.29141 150.42861 30266 ft 355 kts 198°
2026-05-08 03:50 -35.31545 150.42142 30429 ft 357 kts 198°
2026-05-08 03:50 -35.33960 150.41419 30608 ft 358 kts 198°
2026-05-08 03:51 -35.36382 150.40693 30782 ft 358 kts 198°
2026-05-08 03:51 -35.38805 150.39967 30957 ft 359 kts 198°
2026-05-08 03:51 -35.41238 150.39238 31108 ft 360 kts 198°
2026-05-08 03:51 -35.43676 150.38506 31276 ft 361 kts 198°
2026-05-08 03:52 -35.46118 150.37773 31441 ft 362 kts 198°
2026-05-08 03:52 -35.48565 150.37037 31594 ft 362 kts 198°
2026-05-08 03:52 -35.51012 150.36302 31789 ft 362 kts 198°
2026-05-08 03:52 -35.53467 150.35563 31945 ft 363 kts 198°
2026-05-08 03:53 -35.55922 150.34824 32084 ft 364 kts 198°
2026-05-08 03:53 -35.58387 150.34081 32221 ft 365 kts 198°
2026-05-08 03:53 -35.60855 150.33337 32344 ft 366 kts 198°
2026-05-08 03:53 -35.63331 150.32590 32489 ft 367 kts 198°
2026-05-08 03:54 -35.65811 150.31842 32634 ft 367 kts 198°
2026-05-08 03:54 -35.68293 150.31092 32764 ft 368 kts 198°
2026-05-08 03:54 -35.70750 150.30351 33124 ft 362 kts 198°
2026-05-08 03:54 -35.73204 150.29610 33246 ft 363 kts 198°
2026-05-08 03:55 -35.75656 150.28867 33408 ft 363 kts 198°
2026-05-08 03:55 -35.78109 150.28125 33602 ft 362 kts 198°
2026-05-08 03:55 -35.80544 150.27388 33934 ft 356 kts 198°
2026-05-08 03:55 -35.82914 150.26672 34360 ft 349 kts 198°
2026-05-08 03:56 -35.85279 150.25955 34438 ft 350 kts 198°
2026-05-08 03:56 -35.90060 150.24498 34641 ft 356 kts 198°
2026-05-08 03:56 -35.92467 150.23765 34885 ft 357 kts 198°
2026-05-08 03:57 -35.94878 150.23032 35122 ft 357 kts 198°
2026-05-08 03:57 -35.97292 150.22297 35367 ft 358 kts 198°
2026-05-08 03:57 -35.99709 150.21561 35609 ft 358 kts 198°
2026-05-08 03:57 -36.02123 150.20826 35858 ft 358 kts 198°
2026-05-08 03:58 -36.04542 150.20089 36040 ft 359 kts 198°
2026-05-08 03:58 -36.09469 150.18581 36030 ft 370 kts 198°
2026-05-08 03:59 -36.14491 150.17044 36037 ft 379 kts 198°
2026-05-08 03:59 -36.19677 150.15456 36037 ft 388 kts 198°
2026-05-08 04:00 -36.24978 150.13832 36036 ft 396 kts 198°
2026-05-08 04:00 -36.30331 150.12192 36020 ft 397 kts 198°
2026-05-08 04:01 -36.35696 150.10546 36013 ft 396 kts 198°
2026-05-08 04:01 -36.40995 150.08919 36018 ft 389 kts 198°
2026-05-08 04:02 -36.46240 150.07303 36031 ft 389 kts 198°
2026-05-08 04:02 -36.51488 150.05682 36023 ft 389 kts 198°
2026-05-08 04:03 -36.56741 150.04057 36026 ft 390 kts 198°
2026-05-08 04:03 -36.64654 150.01607 36032 ft 392 kts 198°
2026-05-08 04:04 -36.69961 149.99961 36024 ft 394 kts 197°
2026-05-08 04:04 -36.75288 149.98306 36030 ft 395 kts 197°
2026-05-08 04:05 -36.80638 149.96643 36020 ft 397 kts 197°
2026-05-08 04:05 -36.86005 149.94971 36030 ft 398 kts 197°
2026-05-08 04:06 -36.91387 149.93292 36022 ft 399 kts 197°
2026-05-08 04:06 -36.96785 149.91607 36030 ft 400 kts 197°
2026-05-08 04:07 -37.02191 149.89916 36017 ft 401 kts 197°
2026-05-08 04:07 -37.07601 149.88221 36030 ft 401 kts 197°
2026-05-08 04:08 -37.13012 149.86524 36019 ft 401 kts 197°
2026-05-08 04:08 -37.18426 149.84822 36030 ft 401 kts 197°
2026-05-08 04:09 -37.23840 149.83118 36025 ft 401 kts 196°
2026-05-08 04:09 -37.29260 149.81410 36033 ft 402 kts 196°
2026-05-08 04:10 -37.34684 149.79698 36026 ft 402 kts 196°
2026-05-08 04:10 -37.40076 149.77994 36041 ft 403 kts 196°
2026-05-08 04:11 -37.45514 149.76272 36035 ft 403 kts 196°
2026-05-08 04:11 -37.50963 149.74544 36041 ft 404 kts 196°
2026-05-08 04:12 -37.56421 149.72812 36039 ft 405 kts 196°
2026-05-08 04:12 -37.61876 149.71035 36046 ft 405 kts 197°
2026-05-08 04:13 -37.67289 149.69067 36045 ft 405 kts 198°
2026-05-08 04:13 -37.72695 149.67062 36050 ft 405 kts 198°
2026-05-08 04:14 -37.78102 149.65070 36044 ft 405 kts 197°
2026-05-08 04:14 -37.83506 149.63090 36050 ft 404 kts 197°
2026-05-08 04:15 -37.88900 149.61115 36044 ft 403 kts 197°
2026-05-08 04:15 -37.94280 149.59143 36051 ft 402 kts 197°
2026-05-08 04:16 -37.99651 149.57172 36044 ft 401 kts 197°
2026-05-08 04:16 -38.05005 149.55203 36051 ft 400 kts 197°
2026-05-08 04:17 -38.10350 149.53235 36043 ft 400 kts 197°
2026-05-08 04:17 -38.15687 149.51267 36048 ft 399 kts 197°
2026-05-08 04:18 -38.21011 149.49300 36041 ft 398 kts 197°
2026-05-08 04:18 -38.26328 149.47333 36046 ft 398 kts 197°
2026-05-08 04:19 -38.31637 149.45366 36041 ft 397 kts 197°
2026-05-08 04:19 -38.36947 149.43396 36046 ft 397 kts 197°
2026-05-08 04:20 -38.42253 149.41424 36038 ft 397 kts 197°
2026-05-08 04:20 -38.47559 149.39450 36045 ft 397 kts 196°
2026-05-08 04:21 -38.52831 149.37485 36040 ft 397 kts 196°
2026-05-08 04:21 -38.58139 149.35503 36046 ft 398 kts 196°
2026-05-08 04:22 -38.63453 149.33516 36041 ft 398 kts 196°
2026-05-08 04:22 -38.68763 149.31528 36044 ft 398 kts 196°
2026-05-08 04:23 -38.74068 149.29538 36039 ft 398 kts 196°
2026-05-08 04:23 -38.76715 149.28544 35913 ft 392 kts 195°
2026-05-08 04:23 -38.79317 149.27566 35963 ft 387 kts 195°
2026-05-08 04:24 -38.84462 149.25630 36033 ft 386 kts 195°
2026-05-08 04:24 -38.88787 149.24001 36040 ft 387 kts 195°
2026-05-08 04:25 -38.93970 149.22046 36041 ft 389 kts 195°
2026-05-08 04:25 -38.99174 149.20080 36041 ft 391 kts 195°
2026-05-08 04:26 -39.04399 149.18103 36040 ft 392 kts 195°
2026-05-08 04:26 -39.09628 149.16121 36037 ft 392 kts 195°
2026-05-08 04:27 -39.14853 149.14138 36041 ft 391 kts 195°
2026-05-08 04:27 -39.20027 149.12170 36035 ft 390 kts 195°
2026-05-08 04:28 -39.25218 149.10194 36037 ft 388 kts 195°
2026-05-08 04:28 -39.30389 149.08222 36037 ft 387 kts 195°
2026-05-08 04:29 -39.35540 149.06254 36036 ft 385 kts 195°
2026-05-08 04:29 -39.40674 149.04290 36040 ft 384 kts 195°
2026-05-08 04:30 -39.43233 149.03311 36253 ft 384 kts 195°
2026-05-08 04:30 -39.45819 149.02319 36152 ft 391 kts 195°
2026-05-08 04:30 -39.51091 149.00297 36070 ft 397 kts 195°
2026-05-08 04:31 -39.56389 148.98261 36046 ft 396 kts 195°
2026-05-08 04:31 -39.61667 148.96228 36034 ft 395 kts 195°
2026-05-08 04:32 -39.66919 148.94203 36033 ft 393 kts 195°
2026-05-08 04:32 -39.72142 148.92186 36037 ft 390 kts 195°
2026-05-08 04:33 -39.77334 148.90178 36041 ft 388 kts 195°
2026-05-08 04:33 -39.82502 148.88176 36037 ft 387 kts 195°
2026-05-08 04:34 -39.87649 148.86179 36037 ft 385 kts 195°
2026-05-08 04:34 -39.92743 148.84199 36037 ft 384 kts 195°
2026-05-08 04:35 -39.97870 148.82203 36037 ft 384 kts 195°
2026-05-08 04:35 -40.02993 148.80207 36037 ft 385 kts 195°
2026-05-08 04:36 -40.08127 148.78202 36040 ft 385 kts 195°
2026-05-08 04:36 -40.13268 148.76191 36038 ft 386 kts 195°
2026-05-08 04:37 -40.18425 148.74170 36038 ft 387 kts 195°
2026-05-08 04:37 -40.23590 148.72142 36042 ft 388 kts 195°
2026-05-08 04:38 -40.28770 148.70105 36038 ft 389 kts 195°
2026-05-08 04:38 -40.33956 148.68062 36048 ft 389 kts 195°
2026-05-08 04:39 -40.39139 148.66017 36035 ft 389 kts 195°
2026-05-08 04:39 -40.44328 148.63967 36043 ft 389 kts 195°
2026-05-08 04:40 -40.49514 148.61914 36038 ft 389 kts 195°
2026-05-08 04:40 -40.54692 148.59861 36043 ft 388 kts 195°
2026-05-08 04:41 -40.59864 148.57808 36039 ft 388 kts 195°
2026-05-08 04:41 -40.65031 148.55753 36045 ft 388 kts 196°
2026-05-08 04:42 -40.70193 148.53696 36040 ft 387 kts 196°
2026-05-08 04:42 -40.75345 148.51640 36049 ft 386 kts 196°
2026-05-08 04:43 -40.80490 148.49584 36043 ft 386 kts 196°
2026-05-08 04:43 -40.85625 148.47529 36053 ft 385 kts 196°
2026-05-08 04:44 -40.90757 148.45471 36039 ft 385 kts 196°
2026-05-08 04:44 -40.95881 148.43414 36048 ft 385 kts 196°
2026-05-08 04:45 -41.01007 148.41351 36041 ft 385 kts 196°
2026-05-08 04:45 -41.04400 148.39985 36043 ft 385 kts 196°
2026-05-08 04:46 -41.09475 148.37938 36040 ft 385 kts 196°
2026-05-08 04:46 -41.14603 148.35866 36046 ft 386 kts 196°
2026-05-08 04:47 -41.19723 148.33786 35816 ft 380 kts 194°
2026-05-08 04:47 -41.24719 148.31764 35961 ft 374 kts 194°
2026-05-08 04:48 -41.27243 148.30744 35565 ft 381 kts 194°
2026-05-08 04:48 -41.29778 148.29716 34991 ft 381 kts 194°
2026-05-08 04:48 -41.32305 148.28688 34420 ft 380 kts 193°
2026-05-08 04:48 -41.34826 148.27611 33758 ft 381 kts 195°
2026-05-08 04:49 -41.37334 148.26425 33020 ft 383 kts 196°
2026-05-08 04:49 -41.39834 148.25194 32321 ft 384 kts 196°
2026-05-08 04:49 -41.42336 148.23949 31624 ft 385 kts 196°
2026-05-08 04:49 -41.44849 148.22700 30914 ft 386 kts 196°
2026-05-08 04:50 -41.47371 148.21451 30199 ft 388 kts 195°
2026-05-08 04:50 -41.49872 148.20218 29369 ft 389 kts 196°
2026-05-08 04:50 -41.52411 148.18969 28723 ft 387 kts 196°
2026-05-08 04:50 -41.54923 148.17732 28123 ft 383 kts 196°
2026-05-08 04:51 -41.57411 148.16509 27581 ft 379 kts 197°
2026-05-08 04:51 -41.59872 148.15299 27030 ft 375 kts 197°
2026-05-08 04:51 -41.62311 148.14099 26494 ft 372 kts 197°
2026-05-08 04:51 -41.64729 148.12910 25967 ft 368 kts 197°
2026-05-08 04:52 -41.67124 148.11731 25447 ft 366 kts 198°
2026-05-08 04:52 -41.69502 148.10560 24928 ft 363 kts 198°
2026-05-08 04:52 -41.71868 148.09393 24410 ft 361 kts 198°
2026-05-08 04:52 -41.74219 148.08234 23906 ft 359 kts 198°
2026-05-08 04:53 -41.76563 148.07077 23319 ft 359 kts 199°
2026-05-08 04:53 -41.78895 148.05924 22753 ft 356 kts 199°
2026-05-08 04:53 -41.81204 148.04781 22248 ft 352 kts 199°
2026-05-08 04:53 -41.83495 148.03647 21719 ft 350 kts 199°
2026-05-08 04:54 -41.85770 148.02520 21214 ft 347 kts 199°
2026-05-08 04:54 -41.88032 148.01399 20711 ft 345 kts 199°
2026-05-08 04:54 -41.90274 148.00286 20214 ft 343 kts 199°
2026-05-08 04:54 -41.92511 147.99176 19721 ft 342 kts 200°
2026-05-08 04:55 -41.94744 147.98066 19224 ft 342 kts 200°
2026-05-08 04:55 -41.96982 147.96953 18740 ft 345 kts 200°
2026-05-08 04:55 -41.99251 147.95825 18225 ft 351 kts 200°
2026-05-08 04:55 -42.01543 147.94683 17646 ft 351 kts 200°
2026-05-08 04:56 -42.03820 147.93547 17112 ft 347 kts 200°
2026-05-08 04:56 -42.06076 147.92421 16597 ft 344 kts 200°
2026-05-08 04:56 -42.08310 147.91306 16088 ft 341 kts 200°
2026-05-08 04:56 -42.10523 147.90200 15599 ft 338 kts 200°
2026-05-08 04:57 -42.12721 147.89101 15107 ft 336 kts 200°
2026-05-08 04:57 -42.14902 147.88011 14623 ft 333 kts 200°
2026-05-08 04:57 -42.17070 147.86925 14140 ft 331 kts 200°
2026-05-08 04:57 -42.19227 147.85843 13609 ft 330 kts 200°
2026-05-08 04:58 -42.21373 147.84767 13079 ft 328 kts 200°
2026-05-08 04:58 -42.23508 147.83696 12548 ft 326 kts 200°
2026-05-08 04:58 -42.25625 147.82633 12051 ft 323 kts 200°
2026-05-08 04:58 -42.27726 147.81577 11550 ft 321 kts 200°
2026-05-08 04:59 -42.29817 147.80526 11055 ft 319 kts 200°
2026-05-08 04:59 -42.31873 147.79492 10828 ft 308 kts 200°
2026-05-08 04:59 -42.33763 147.78352 10654 ft 288 kts 212°
2026-05-08 04:59 -42.35246 147.76662 10535 ft 272 kts 225°
2026-05-08 05:00 -42.36333 147.74598 10436 ft 269 kts 234°
2026-05-08 05:00 -42.37263 147.72416 10327 ft 266 kts 236°
2026-05-08 05:00 -42.38173 147.70232 10227 ft 266 kts 236°
2026-05-08 05:00 -42.39072 147.68092 10096 ft 258 kts 235°
2026-05-08 05:01 -42.39948 147.66022 9970 ft 250 kts 235°
2026-05-08 05:01 -42.40810 147.63996 9704 ft 247 kts 235°
2026-05-08 05:01 -42.41665 147.61994 9465 ft 245 kts 234°
2026-05-08 05:01 -42.42515 147.60004 9241 ft 244 kts 235°
2026-05-08 05:02 -42.43365 147.58016 8987 ft 244 kts 235°
2026-05-08 05:02 -42.44212 147.56031 8740 ft 243 kts 235°
2026-05-08 05:02 -42.45058 147.54047 8500 ft 243 kts 235°
2026-05-08 05:02 -42.45901 147.52070 8263 ft 242 kts 235°
2026-05-08 05:03 -42.46741 147.50098 8012 ft 242 kts 235°
2026-05-08 05:03 -42.47549 147.48197 7798 ft 241 kts 235°
2026-05-08 05:03 -42.48379 147.46242 7566 ft 239 kts 235°
2026-05-08 05:03 -42.49204 147.44299 7355 ft 237 kts 235°
2026-05-08 05:04 -42.50010 147.42397 7128 ft 235 kts 235°
2026-05-08 05:04 -42.50821 147.40488 6913 ft 233 kts 236°
2026-05-08 05:04 -42.51620 147.38599 6696 ft 229 kts 235°
2026-05-08 05:04 -42.52412 147.36731 6469 ft 227 kts 236°
2026-05-08 05:05 -42.53194 147.34882 6217 ft 224 kts 236°
2026-05-08 05:05 -42.53963 147.33063 6015 ft 221 kts 236°
2026-05-08 05:05 -42.54729 147.31255 5802 ft 221 kts 237°
2026-05-08 05:05 -42.55516 147.29493 5580 ft 216 kts 229°
2026-05-08 05:06 -42.56636 147.28187 5391 ft 211 kts 212°
2026-05-08 05:06 -42.57916 147.27219 5208 ft 210 kts 210°
2026-05-08 05:06 -42.59223 147.26283 5089 ft 216 kts 210°
2026-05-08 05:06 -42.60549 147.25330 5017 ft 213 kts 210°
2026-05-08 05:07 -42.61881 147.24622 4983 ft 203 kts 186°
2026-05-08 05:07 -42.63194 147.25151 5033 ft 197 kts 158°
2026-05-08 05:07 -42.64328 147.26091 5055 ft 188 kts 157°
2026-05-08 05:07 -42.65440 147.27111 4841 ft 196 kts 152°
2026-05-08 05:08 -42.66531 147.28229 4571 ft 195 kts 150°
2026-05-08 05:08 -42.67572 147.29401 4303 ft 194 kts 146°
2026-05-08 05:08 -42.68549 147.30645 4038 ft 191 kts 143°
2026-05-08 05:08 -42.69493 147.31912 3788 ft 191 kts 143°
2026-05-08 05:09 -42.70119 147.32761 3618 ft 193 kts 142°
2026-05-08 05:09 -42.71054 147.34039 3357 ft 185 kts 142°
2026-05-08 05:09 -42.72216 147.35633 3004 ft 168 kts 142°
2026-05-08 05:09 -42.73031 147.36745 2786 ft 168 kts 141°
2026-05-08 05:10 -42.73575 147.37485 2662 ft 167 kts 141°
2026-05-08 05:10 -42.75229 147.39742 2188 ft 167 kts 140°
2026-05-08 05:10 -42.76042 147.40854 1940 ft 165 kts 141°
2026-05-08 05:11 -42.76853 147.41959 1735 ft 165 kts 140°
2026-05-08 05:11 -42.77636 147.43032 1508 ft 152 kts 141°
2026-05-08 05:11 -42.78347 147.44001 1315 ft 142 kts 142°
2026-05-08 05:11 -42.79040 147.44944 1121 ft 140 kts 141°
2026-05-08 05:12 -42.79718 147.45884 917 ft 136 kts 140°
2026-05-08 05:12 -42.80379 147.46770 744 ft 132 kts 140°
2026-05-08 05:12 -42.81027 147.47655 559 ft 129 kts 139°
2026-05-08 05:12 -42.81653 147.48515 371 ft 129 kts 138°
2026-05-08 05:13 -42.82262 147.49358 243 ft 122 kts 141°
2026-05-08 05:13 -42.82876 147.50179 69 ft 125 kts 139°
2026-05-08 05:13 -42.83460 147.50976 22 ft 108 kts 137°
2026-05-08 05:13 -42.83900 147.51562 23 ft 74 kts 135°
2026-05-08 05:14 -42.84231 147.52014 21 ft 61 kts 135°
2026-05-08 05:14 -42.84435 147.52286 21 ft 21 kts 147°
2026-05-08 05:14 -42.84552 147.52356 22 ft 14 kts 134°
2026-05-08 05:14 -42.84536 147.52422 21 ft 9 kts 353°
2026-05-08 05:15 -42.84489 147.52365 22 ft 9 kts 314°
2026-05-08 05:15 -42.84421 147.52272 21 ft 19 kts 315°
2026-05-08 05:15 -42.84302 147.52111 23 ft 26 kts 315°
2026-05-08 05:15 -42.84180 147.51944 23 ft 24 kts 315°
2026-05-08 05:16 -42.84067 147.51788 23 ft 23 kts 314°
2026-05-08 05:16 -42.83957 147.51637 23 ft 22 kts 315°
2026-05-08 05:16 -42.83855 147.51503 21 ft 17 kts 316°
2026-05-08 05:16 -42.83787 147.51412 22 ft 12 kts 314°
2026-05-08 05:17 -42.83779 147.51311 23 ft 12 kts 230°
2026-05-08 05:17 -42.83821 147.51252 23 ft 5 kts 224°
2026-05-08 05:17 -42.83845 147.51220 21 ft 6 kts 225°
2026-05-08 05:17 -42.83861 147.51154 21 ft 9 kts 289°
2026-05-08 05:18 -42.83820 147.51088 21 ft 10 kts 314°
2026-05-08 05:18 -42.83773 147.51023 22 ft 9 kts 314°
2026-05-08 05:18 -42.83721 147.50950 22 ft 12 kts 314°
2026-05-08 05:18 -42.83676 147.50856 21 ft 12 kts 263°
2026-05-08 05:19 -42.83696 147.50756 21 ft 11 kts 296°
2026-05-08 05:19 -42.83655 147.50693 21 ft 6 kts 315°
2026-05-08 05:19 -42.83656 147.50661 21 ft 3 kts 226°
2026-05-08 05:19 -42.83669 147.50643 22 ft 3 kts 225°
2026-05-08 05:20 -42.83681 147.50626 22 ft 1 kts 224°
2026-05-08 05:20 -42.83684 147.50623 21 ft 0 kts 224°